Belvidere, Illinois, United States (61008)
Lat: 42.26N, Lon: 88.84W
Wx Zone: ILZ004
Local Info
Past Weather Observations for Saturday, August 16, 2014

NOTE: This archive is for the closest National Weather Service station to Belvidere. Information may differ from the station used for current weather conditions.

Click here for Long-term Archive

Time Weather Temperature Dewpoint Humidity Pressure Winds Precip Visibility
23:54
Mostly Cloudy
Fog
66°F / 19°C 63°F / 17°C 88% 29.98 in
(1015 mb)
Calm - 10SM
22:54
Partly Cloudy
64°F / 18°C 63°F / 17°C 94% 29.98 in
(1015 mb)
Calm - 10SM
21:54
Partly Cloudy
66°F / 19°C 64°F / 18°C 94% 29.95 in
(1014 mb)
S 5.8 mph
(S 9 kph)
- 10SM
20:54
Partly Cloudy
70°F / 21°C 64°F / 18°C 83% 29.95 in
(1014 mb)
Calm - 10SM
19:54
Mostly Cloudy
70°F / 21°C 64°F / 18°C 83% 29.92 in
(1013 mb)
S 4.6 mph
(S 7 kph)
- 10SM
18:54
Mostly Cloudy
72°F / 22°C 66°F / 19°C 83% 29.92 in
(1013 mb)
S 5.8 mph
(S 9 kph)
- 10SM
17:54
Overcast
75°F / 24°C 64°F / 18°C 69% 29.92 in
(1013 mb)
SSE 8.1 mph
(SSE 13 kph)
- 10SM
16:54
Mostly Cloudy
79°F / 26°C 66°F / 19°C 65% 29.92 in
(1013 mb)
SW 10.4 mph
(SW 17 kph)
- 10SM
15:54
Overcast
81°F / 27°C 66°F / 19°C 62% 29.92 in
(1013 mb)
SW 9.2 mph
(SW 15 kph)
- 10SM
14:54
Overcast
81°F / 27°C 66°F / 19°C 62% 29.92 in
(1013 mb)
Variable 6.9 mph
(Variable 11 kph)
- 10SM
13:54
Overcast
79°F / 26°C 66°F / 19°C 65% 29.92 in
(1013 mb)
SW 5.8 mph
(SW 9 kph)
- 10SM
12:54
Overcast
79°F / 26°C 66°F / 19°C 65% 29.95 in
(1014 mb)
SW 8.1 mph
(SW 13 kph)
- 10SM
11:54
Overcast
75°F / 24°C 66°F / 19°C 74% 29.95 in
(1014 mb)
SW 8.1 mph
(SW 13 kph)
- 10SM
10:54
Overcast
73°F / 23°C 66°F / 19°C 78% 29.95 in
(1014 mb)
SW 4.6 mph
(SW 7 kph)
- 10SM
09:54
Overcast
72°F / 22°C 64°F / 18°C 78% 29.95 in
(1014 mb)
Calm - 10SM
08:54
Overcast
70°F / 21°C 64°F / 18°C 83% 29.95 in
(1014 mb)
SSE 5.8 mph
(SSE 9 kph)
- 7SM
07:54
Mostly Cloudy
66°F / 19°C 63°F / 17°C 88% 29.95 in
(1014 mb)
SW 4.6 mph
(SW 7 kph)
- 7SM
06:54
Mostly Cloudy
64°F / 18°C 61°F / 16°C 88% 29.95 in
(1014 mb)
S 4.6 mph
(S 7 kph)
- 7SM
05:54
Partly Cloudy
Fog And Mist
63°F / 17°C 59°F / 15°C 88% 29.95 in
(1014 mb)
Calm - 6SM
04:54
Partly Cloudy
57°F / 14°C 55°F / 13°C 94% 29.95 in
(1014 mb)
Calm - 7SM
03:54
Partly Cloudy
61°F / 16°C 57°F / 14°C 88% 29.98 in
(1015 mb)
Calm - 10SM
02:54
Clear
61°F / 16°C 57°F / 14°C 88% 29.98 in
(1015 mb)
S 3.5 mph
(S 6 kph)
- 10SM
01:54
Clear
59°F / 15°C 57°F / 14°C 94% 29.95 in
(1014 mb)
Calm - 10SM
00:54
Clear
61°F / 16°C 57°F / 14°C 88% 29.95 in
(1014 mb)
S 4.6 mph
(S 7 kph)
- 10SM
Time Weather Temperature Dewpoint Humidity Pressure Winds Precip Visibility


Weather for websites

WeatherForYou.com, LLC is not responsible for any damages or problems caused by this service. Current weather conditions are obtained from the closest station including government and personal stations which may have varying degrees of accuracy. Weather forecasts are derived from the NOAA NDFD. Like all things, this site belongs to Jesus Christ... He just trusts me to maintain it. If you have any questions or comments email webmaster@weatherforyou.com

Copyright © 2014, WeatherForYou.com LLC. All rights reserved.